Flag for United Kingdom Weather past 2 weeks in Exeter, England, United Kingdom

Now
52 °F

Clear.


Feels Like: 52 °F
Forecast: 49 / 68 °F
Wind: No wind

Location: Exeter Airport

Current Time: Aug 31, 2014 at 3:30:55 AM

Latest Report: Aug 31, 2014 at 2:50 AM


Visibility: 10 mi

Pressure: 30.09 "Hg

Humidity: 94%

Dew point: 50 °F

Location of ExeterLocation

Historic Weather in Exeter — Graph

°F

Exeter temperature yesterday

Maximum temperature yesterday: 64 °F (at 11:50 AM)
Minimum temperature yesterday: 57 °F (at 5:20 AM)
Average temperature yesterday: 61 °F

Past Weeks' High & Low Weather Summary

 TemperatureHumidityPressure
High70 °F (Aug 25, 4:20 PM)100% (Aug 21, 6:20 AM)30.21 "Hg (Aug 21, 6:20 AM)
Low41 °F (Aug 20, 5:20 AM)40% (Aug 20, 4:20 PM)29.53 "Hg (Aug 25, 5:50 PM)
Average59 °F77%29.94 "Hg
* Reported Aug 16 2:20 AM — Aug 31 2:20 AM, Exeter, Weather by CustomWeather, © 2014

Note: Actual official high and low records may vary slightly from our data, if they occured in-between our weather recording intervals... More about our weather records

Advertising

Exeter weather history for previous 24 hours

 ConditionsComfort  
Time TempWeatherWind HumidityBarometerVisibility
2:20 AM
Aug 31
52 °FClear.1 mph100%30.09 "Hg10 mi
1:50 AM54 °FClear.2 mph94%30.09 "Hg10 mi
1:20 AM54 °FClear.3 mph94%30.09 "Hg10 mi
12:50 AM55 °FClear.5 mph88%30.09 "Hg10 mi
12:20 AM55 °FPassing clouds.5 mph88%30.09 "HgN/A
11:50 PM
Aug 30
57 °FPassing clouds.9 mph82%30.09 "HgN/A
11:20 PM57 °FPassing clouds.6 mph82%30.09 "HgN/A
10:50 PM57 °FPassing clouds.1 mph82%30.09 "HgN/A
10:20 PM57 °FPassing clouds.5 mph82%30.09 "HgN/A
9:50 PM57 °FPassing clouds.8 mph82%30.09 "HgN/A
9:20 PM57 °FPassing clouds.6 mph82%30.09 "HgN/A
8:50 PM59 °FPassing clouds.6 mph77%30.09 "HgN/A
8:20 PM59 °FPassing clouds.6 mph77%30.09 "HgN/A
7:50 PM61 °FPassing clouds.8 mph72%30.07 "HgN/A
7:20 PM61 °FPassing clouds.6 mph72%30.07 "HgN/A
6:20 PM63 °FPassing clouds.10 mph64%30.07 "HgN/A
5:50 PM63 °FPassing clouds.12 mph64%30.07 "HgN/A
5:20 PM64 °FPassing clouds.13 mph60%30.07 "HgN/A
4:50 PM63 °FPassing clouds.13 mph68%30.07 "HgN/A
4:20 PM64 °FPassing clouds.10 mph64%30.07 "HgN/A
3:50 PM63 °FPassing clouds.12 mph68%30.07 "HgN/A
3:20 PM63 °FPassing clouds.13 mph68%30.07 "HgN/A
2:50 PM64 °FScattered clouds.12 mph68%30.07 "HgN/A
2:20 PM63 °FScattered clouds.14 mph68%30.07 "HgN/A
1:50 PM63 °FScattered clouds.13 mph68%30.07 "HgN/A
1:20 PM63 °FScattered clouds.14 mph68%30.04 "HgN/A
12:50 PM63 °FScattered clouds.14 mph64%30.07 "HgN/A
12:20 PM63 °FScattered clouds.14 mph64%30.04 "HgN/A
11:50 AM64 °FScattered clouds.13 mph60%30.04 "HgN/A
11:20 AM63 °FScattered clouds.13 mph68%30.04 "HgN/A
10:50 AM63 °FScattered clouds.13 mph68%30.04 "HgN/A
10:20 AM63 °FPassing clouds.8 mph73%30.04 "HgN/A
9:50 AM59 °FPassing clouds.8 mph77%30.04 "HgN/A
9:20 AM59 °FPassing clouds.8 mph82%30.04 "HgN/A
8:50 AM59 °FPassing clouds.7 mph82%30.01 "HgN/A
8:20 AM57 °FPassing clouds.8 mph88%30.01 "HgN/A
7:50 AM57 °FPassing clouds.7 mph88%30.01 "HgN/A
7:20 AM57 °FPassing clouds.7 mph88%30.01 "HgN/A
6:50 AM57 °FPassing clouds.9 mph88%30.01 "HgN/A
6:20 AM57 °FPassing clouds.7 mph88%30.01 "HgN/A
5:50 AM59 °FPassing clouds.10 mph82%29.98 "HgN/A
5:20 AM57 °FPassing clouds.14 mphN/A29.98 "HgN/A
4:50 AM63 °FPassing clouds.14 mph77%29.98 "Hg5 mi
4:20 AM63 °FLight rain. Partly cloudy.14 mph77%29.98 "Hg5 mi
3:50 AM63 °FPassing clouds.14 mph77%29.98 "HgN/A
3:20 AM63 °FLight rain. Partly cloudy.14 mph77%29.98 "Hg5 mi
Weather by CustomWeather, © 2014

See weather overviewHow to use our weather pages